Weather History for Arlington, WA

Change the Weather History Date:

Tuesday, October 11, 2011

  Actual Average Record
Temperature  
Mean Temperature 56 °F -  
Max Temperature 59 °F 60 °F 68 °F (2006)
Min Temperature 53 °F 42 °F 28 °F (2008)
Degree Days  
Heating Degree Days 9    
Growing Degree Days 6 (Base 50)    
Moisture  
Dew Point 48 °F    
Average Humidity 78    
Maximum Humidity 88    
Minimum Humidity 67    
Precipitation  
Precipitation 0.01 in - - ()
Sea Level Pressure  
Sea Level Pressure 29.73 in    
Wind  
Wind Speed 15 mph (SSE)    
Max Wind Speed 22 mph    
Max Gust Speed 30 mph    
Visibility 10 miles    
Events      
Averages and records for this station are not official NWS values.
T = Trace of Precipitation, MM = Missing Value Source: NWS Daily Summary

Daily Weather History Graph

Daily Weather History Graph

Search for Another Location

Airport:

Trip Planner

Search our weather history database for the weather conditions in past years. The results will help you decide how hot, cold, wet, or windy it might be!

Date:

Astronomy

Oct. 11, 2011 Rise Set
Actual Time 7:22 AM PDT 6:27 PM PDT
Civil Twilight 6:50 AM PDT 6:59 PM PDT
Nautical Twilight 6:14 AM PDT 7:35 PM PDT
Astronomical Twilight 5:38 AM PDT 8:11 PM PDT
Moon 5:57 PM PDT (10/11) 7:08 AM PDT (10/11)
Length of Visible Light 12h 08m
Length of Day
11h 05m
Full, 100% of the Moon is Illuminated
Oct 11
Full
Oct 11
Full
Oct 19
Last Quarter
Oct 26
New
Nov 2
First Quarter

Hourly Weather History & Observations

Time (PDT) Temp. Dew Point Humidity Pressure Visibility Wind Dir Wind Speed Gust Speed Precip Events Conditions
12:15 AM 55.4 °F 48.2 °F 77% 29.55 in 10.0 mi SE 17.3 mph - N/A   Overcast
12:35 AM 55.4 °F 48.2 °F 77% 29.56 in 10.0 mi SSE 13.8 mph 18.4 mph N/A   Overcast
12:55 AM 55.4 °F 48.2 °F 77% 29.57 in 10.0 mi SSE 19.6 mph 25.3 mph N/A   Overcast
1:35 AM 53.6 °F 48.2 °F 82% 29.55 in 10.0 mi SE 21.9 mph 29.9 mph N/A   Mostly Cloudy
1:55 AM 53.6 °F 48.2 °F 82% 29.56 in 10.0 mi SSE 19.6 mph 24.2 mph N/A   Mostly Cloudy
2:15 AM 55.4 °F 48.2 °F 77% 29.57 in 10.0 mi SSE 17.3 mph 26.5 mph N/A   Overcast
2:35 AM 55.4 °F 48.2 °F 77% 29.57 in 10.0 mi SE 17.3 mph 23.0 mph N/A   Overcast
2:55 AM 53.6 °F 48.2 °F 82% 29.57 in 10.0 mi SSE 16.1 mph - N/A   Overcast
3:15 AM 53.6 °F 48.2 °F 82% 29.56 in 10.0 mi SSE 15.0 mph 25.3 mph N/A   Overcast
3:35 AM 53.6 °F 48.2 °F 82% 29.56 in 10.0 mi SE 12.7 mph 16.1 mph 0.01 in   Mostly Cloudy
3:55 AM 53.6 °F 48.2 °F 82% 29.56 in 10.0 mi SE 11.5 mph - 0.01 in   Overcast
4:15 AM 53.6 °F 48.2 °F 82% 29.56 in 10.0 mi SE 15.0 mph 18.4 mph N/A   Overcast
4:35 AM 53.6 °F 50.0 °F 88% 29.57 in 10.0 mi SSE 16.1 mph - N/A   Overcast
4:55 AM 53.6 °F 50.0 °F 88% 29.57 in 10.0 mi SSE 16.1 mph - N/A   Overcast
5:15 AM 53.6 °F 50.0 °F 88% 29.57 in 10.0 mi SSE 18.4 mph 26.5 mph N/A   Overcast
5:35 AM 53.6 °F 48.2 °F 82% 29.58 in 10.0 mi SSE 17.3 mph - N/A   Overcast
5:55 AM 53.6 °F 48.2 °F 82% 29.59 in 10.0 mi SSE 16.1 mph - N/A   Overcast
6:15 AM 53.6 °F 48.2 °F 82% 29.60 in 10.0 mi SSE 16.1 mph 20.7 mph N/A   Overcast
6:35 AM 53.6 °F 48.2 °F 82% 29.62 in 10.0 mi SSE 9.2 mph 16.1 mph N/A   Overcast
6:55 AM 53.6 °F 48.2 °F 82% 29.63 in 10.0 mi South 11.5 mph - N/A   Overcast
7:15 AM 53.6 °F 48.2 °F 82% 29.65 in 10.0 mi South 9.2 mph - N/A   Overcast
7:55 AM 53.6 °F 48.2 °F 82% 29.68 in 10.0 mi SSE 6.9 mph - N/A   Overcast
8:15 AM 53.6 °F 48.2 °F 82% 29.69 in 10.0 mi SSE 9.2 mph - N/A   Overcast
8:35 AM 53.6 °F 48.2 °F 82% 29.70 in 10.0 mi SSE 10.4 mph 16.1 mph N/A   Overcast
8:55 AM 53.6 °F 48.2 °F 82% 29.72 in 10.0 mi SSE 8.1 mph - N/A   Overcast
9:15 AM 53.6 °F 48.2 °F 82% 29.73 in 10.0 mi SSE 12.7 mph - N/A   Overcast
9:35 AM 53.6 °F 48.2 °F 82% 29.74 in 10.0 mi SSE 11.5 mph 18.4 mph N/A   Overcast
9:55 AM 53.6 °F 48.2 °F 82% 29.75 in 10.0 mi SSE 10.4 mph - N/A   Overcast
10:15 AM 55.4 °F 48.2 °F 77% 29.76 in 10.0 mi SSE 11.5 mph - N/A   Overcast
10:35 AM 55.4 °F 48.2 °F 77% 29.77 in 10.0 mi SSE 9.2 mph - N/A   Overcast
10:55 AM 55.4 °F 48.2 °F 77% 29.78 in 10.0 mi SSE 6.9 mph - N/A   Overcast
11:15 AM 55.4 °F 48.2 °F 77% 29.79 in 10.0 mi SSE 9.2 mph - N/A   Overcast
11:35 AM 55.4 °F 48.2 °F 77% 29.79 in 10.0 mi SE 11.5 mph - N/A   Overcast
11:55 AM 55.4 °F 48.2 °F 77% 29.80 in 10.0 mi SSE 11.5 mph - N/A   Overcast
12:15 PM 57.2 °F 48.2 °F 72% 29.81 in 10.0 mi SSE 12.7 mph - N/A   Overcast
12:35 PM 57.2 °F 48.2 °F 72% 29.82 in 10.0 mi SSE 15.0 mph 21.9 mph N/A   Overcast
1:15 PM 57.2 °F 48.2 °F 72% 29.82 in 10.0 mi SSE 18.4 mph - N/A   Overcast
1:35 PM 57.2 °F 50.0 °F 77% 29.83 in 10.0 mi SSE 18.4 mph 24.2 mph N/A   Overcast
1:55 PM 59.0 °F 48.2 °F 67% 29.83 in 10.0 mi SSE 17.3 mph 27.6 mph N/A   Overcast
2:15 PM 57.2 °F 48.2 °F 72% 29.84 in 10.0 mi South 16.1 mph 27.6 mph N/A   Overcast
2:55 PM 57.2 °F 50.0 °F 77% 29.86 in 10.0 mi South 10.4 mph - N/A   Overcast
3:15 PM 57.2 °F 50.0 °F 77% 29.86 in 10.0 mi South 12.7 mph 16.1 mph N/A   Overcast
3:55 PM 57.2 °F 50.0 °F 77% 29.88 in 10.0 mi SSE 15.0 mph - N/A   Overcast
4:35 PM 57.2 °F 48.2 °F 72% 29.88 in 10.0 mi South 15.0 mph 19.6 mph N/A   Overcast
4:55 PM 57.2 °F 50.0 °F 77% 29.89 in 10.0 mi SSE 12.7 mph - N/A   Overcast
5:15 PM 57.2 °F 48.2 °F 72% 29.89 in 10.0 mi South 12.7 mph 21.9 mph N/A   Overcast
5:35 PM 57.2 °F 48.2 °F 72% 29.90 in 10.0 mi South 11.5 mph 19.6 mph N/A   Overcast
5:55 PM 57.2 °F 48.2 °F 72% 29.91 in 10.0 mi SSE 10.4 mph 20.7 mph N/A   Overcast
6:15 PM 57.2 °F 48.2 °F 72% 29.92 in 10.0 mi South 11.5 mph 17.3 mph N/A   Overcast
6:35 PM 57.2 °F 48.2 °F 72% 29.92 in 10.0 mi South 15.0 mph - N/A   Overcast
6:55 PM 55.4 °F 48.2 °F 77% 29.92 in 10.0 mi South 16.1 mph 21.9 mph N/A   Overcast
7:15 PM 55.4 °F 48.2 °F 77% 29.94 in 10.0 mi South 13.8 mph - N/A   Overcast
7:35 PM 55.4 °F 48.2 °F 77% 29.95 in 10.0 mi South 11.5 mph - N/A   Overcast
7:55 PM 55.4 °F 46.4 °F 72% 29.97 in 10.0 mi South 11.5 mph - N/A   Overcast
8:15 PM 55.4 °F 46.4 °F 72% 29.98 in 10.0 mi SSE 11.5 mph - N/A   Overcast
8:35 PM 55.4 °F 46.4 °F 72% 29.99 in 10.0 mi SSE 10.4 mph - N/A   Overcast
8:55 PM 53.6 °F 48.2 °F 82% 30.00 in 10.0 mi South 9.2 mph - N/A   Overcast
9:15 PM 53.6 °F 48.2 °F 82% 30.01 in 10.0 mi South 6.9 mph - N/A   Overcast
9:35 PM 53.6 °F 48.2 °F 82% 30.01 in 10.0 mi South 9.2 mph - N/A   Overcast
9:55 PM 53.6 °F 48.2 °F 82% 30.03 in 10.0 mi South 12.7 mph - N/A   Overcast
10:15 PM 53.6 °F 46.4 °F 77% 30.03 in 10.0 mi SSE 12.7 mph 16.1 mph N/A   Overcast
10:35 PM 53.6 °F 46.4 °F 77% 30.04 in 10.0 mi SSE 9.2 mph - N/A   Overcast
10:55 PM 53.6 °F 46.4 °F 77% 30.05 in 10.0 mi SSE 8.1 mph - N/A   Overcast
11:15 PM 53.6 °F 46.4 °F 77% 30.06 in 10.0 mi SSE 10.4 mph - N/A   Overcast
11:35 PM 53.6 °F 46.4 °F 77% 30.07 in 10.0 mi SSE 9.2 mph - N/A   Overcast
11:55 PM 53.6 °F 46.4 °F 77% 30.07 in 10.0 mi SSE 9.2 mph - N/A   Overcast